Location: Ceske Budejovice
(48.9830°N, 14.4670°E)
Time: 08:17:01
(UTC+02:00)

ISS - Pass Details

Date: 26 March 2019
Orbit: 408 x 410 km, 51.6° (Epoch: 22 April)

Event Time Altitude Azimuth Distance (km) Brightness Sun altitude
Rises 19:22:53 0° 248° (WSW) 2,331 0.9 -10.4°
Reaches altitude 10° 19:24:58 10° 248° (WSW) 1,471 -0.2 -10.7°
Maximum altitude 19:28:16 89° 170° (S) 414 -3.8 -11.2°
Enters shadow 19:31:01 14° 70° (ENE) 1,245 -1.8 -11.7°
